Glasgow, United Kingdom

9:30 PM BST on May 25, 2017 (GMT +0100)
Glasgow

Weather History for EGPF - March, 2014

Change the Weather History Date:

Monday, March 17, 2014

  Actual Average Record
Temperature  
Mean Temperature 48 °F -  
Max Temperature 51 °F 50 °F 57 °F (2002)
Min Temperature 44 °F 36 °F 24 °F (2003)
Degree Days  
Heating Degree Days 18    
Moisture  
Dew Point 43 °F    
Average Humidity 81    
Maximum Humidity 93    
Minimum Humidity 67    
Precipitation  
Precipitation 0.00 in - - ()
Sea Level Pressure  
Sea Level Pressure 29.97 in    
Wind  
Wind Speed 15 mph ()    
Max Wind Speed 23 mph    
Max Gust Speed 33 mph    
Visibility 6.1 miles    
Events Rain    
Averages and records for this station are not official NWS values.
T = Trace of Precipitation, MM = Missing Value Source: Averaged Metar Reports

Daily Weather History Graph

Daily Weather History Graph

Search for Another Location

Airport or City:

Trip Planner

Search our weather history database for the weather conditions in past years. The results will help you decide how hot, cold, wet, or windy it might be!

Date:

Astronomy

Mar. 17, 2014 Rise Set
Actual Time 6:28 AM GMT 6:25 PM GMT
Civil Twilight 5:51 AM GMT 7:02 PM GMT
Nautical Twilight 5:07 AM GMT 7:45 PM GMT
Astronomical Twilight 4:22 AM GMT 8:31 PM GMT
Moon 7:44 PM GMT (3/17) 6:25 AM GMT (3/17)
Length of Visible Light 13h 10m
Length of Day
11h 56m
Waxing Gibbous, 99% of the Moon is Illuminated
Mar 17
Waxing Gibbous
Mar 24
Last Quarter
Mar 30
New
Apr 7
First Quarter
Apr 15
Full

Hourly Weather History & Observations

Time (GMT) Temp. Windchill Dew Point Humidity Pressure Visibility Wind Dir Wind Speed Gust Speed Precip Events Conditions
12:20 AM 50.0 °F - 44.6 °F 82% 30.01 in 6.2 mi West 23.0 mph - N/A Rain Light Rain
12:50 AM 50.0 °F - 44.6 °F 82% 30.01 in 3.1 mi West 20.7 mph 33.4 mph N/A   Light Drizzle
1:20 AM 48.2 °F - 44.6 °F 87% 30.01 in 6.2 mi West 20.7 mph - N/A Rain Light Rain
1:50 AM 50.0 °F - 44.6 °F 82% 30.01 in 6.2 mi West 18.4 mph - N/A   Mostly Cloudy
2:20 AM 50.0 °F - 42.8 °F 76% 30.01 in 6.2 mi West 18.4 mph - N/A   Mostly Cloudy
2:50 AM 50.0 °F - 42.8 °F 76% 29.98 in 6.2 mi West 13.8 mph - N/A   Scattered Clouds
3:20 AM 50.0 °F - 44.6 °F 82% 29.98 in 6.2 mi West 16.1 mph - N/A Rain Light Rain
3:50 AM 50.0 °F - 44.6 °F 82% 29.98 in 6.2 mi West 18.4 mph - N/A   Mostly Cloudy
4:20 AM 50.0 °F - 44.6 °F 82% 29.98 in 6.2 mi West 15.0 mph - N/A   Mostly Cloudy
4:50 AM 50.0 °F - 44.6 °F 82% 30.01 in 6.2 mi WSW 12.7 mph - N/A   Mostly Cloudy
5:20 AM 50.0 °F - 44.6 °F 82% 30.01 in 6.2 mi West 12.7 mph - N/A   Mostly Cloudy
5:50 AM 50.0 °F - 44.6 °F 82% 29.98 in 6.2 mi WSW 11.5 mph - N/A   Mostly Cloudy
6:20 AM 50.0 °F - 44.6 °F 82% 29.98 in 6.2 mi WSW 8.1 mph - N/A   Mostly Cloudy
6:50 AM 50.0 °F - 44.6 °F 82% 29.98 in 6.2 mi WSW 10.4 mph - N/A   Mostly Cloudy
7:20 AM 50.0 °F - 44.6 °F 82% 30.01 in 6.2 mi WSW 11.5 mph - N/A   Mostly Cloudy
7:50 AM 50.0 °F - 44.6 °F 82% 30.01 in 6.2 mi WSW 15.0 mph - N/A   Mostly Cloudy
8:20 AM 50.0 °F - 46.4 °F 87% 30.01 in 6.2 mi WSW 16.1 mph - N/A   Mostly Cloudy
8:50 AM 50.0 °F - 46.4 °F 87% 30.01 in 6.2 mi WSW 15.0 mph - N/A   Mostly Cloudy
9:20 AM 50.0 °F - 46.4 °F 87% 30.01 in 6.2 mi West 16.1 mph - N/A   Mostly Cloudy
9:50 AM 48.2 °F - 46.4 °F 93% 30.01 in 6.2 mi West 13.8 mph - N/A   Light Drizzle
10:20 AM 48.2 °F - 46.4 °F 93% 30.01 in 5.6 mi West 16.1 mph - N/A   Light Drizzle
10:50 AM 48.2 °F - 46.4 °F 93% 30.01 in 6.2 mi West 17.3 mph - N/A   Mostly Cloudy
11:20 AM 48.2 °F - 44.6 °F 87% 30.01 in 6.2 mi WSW 19.6 mph - N/A   Mostly Cloudy
11:50 AM 48.2 °F - 44.6 °F 87% 30.01 in 6.2 mi WSW 19.6 mph - N/A   Mostly Cloudy
12:20 PM 50.0 °F - 42.8 °F 76% 30.01 in 6.2 mi WSW 18.4 mph - N/A   Mostly Cloudy
12:50 PM 51.8 °F - 44.6 °F 76% 29.98 in 6.2 mi West 23.0 mph - N/A   Scattered Clouds
1:20 PM 51.8 °F - 42.8 °F 71% 29.98 in 6.2 mi West 21.9 mph - N/A   Partly Cloudy
1:50 PM 50.0 °F - 41.0 °F 71% 29.95 in 6.2 mi West 19.6 mph 31.1 mph N/A   Partly Cloudy
2:20 PM 51.8 °F - 42.8 °F 71% 29.95 in 6.2 mi West 17.3 mph - N/A   Scattered Clouds
2:50 PM 51.8 °F - 42.8 °F 71% 29.95 in 6.2 mi West 20.7 mph - N/A   Mostly Cloudy
3:20 PM 51.8 °F - 42.8 °F 71% 29.95 in 6.2 mi WSW 20.7 mph - N/A   Mostly Cloudy
3:50 PM 51.8 °F - 42.8 °F 71% 29.95 in 6.2 mi West 17.3 mph - N/A   Mostly Cloudy
4:20 PM 51.8 °F - 41.0 °F 67% 29.95 in 6.2 mi WSW 16.1 mph 27.6 mph N/A   Mostly Cloudy
4:50 PM 48.2 °F - 41.0 °F 76% 29.95 in 6.2 mi WSW 18.4 mph - N/A   Mostly Cloudy
5:20 PM 48.2 °F - 41.0 °F 76% 29.92 in 6.2 mi WSW 15.0 mph - N/A   Mostly Cloudy
5:50 PM 48.2 °F - 41.0 °F 76% 29.92 in 6.2 mi WSW 13.8 mph - N/A   Mostly Cloudy
6:20 PM 48.2 °F - 41.0 °F 76% 29.92 in 6.2 mi WSW 13.8 mph - N/A   Mostly Cloudy
6:50 PM 48.2 °F - 41.0 °F 76% 29.92 in 6.2 mi WSW 11.5 mph - N/A   Mostly Cloudy
7:20 PM 46.4 °F 40.7 °F 41.0 °F 81% 29.95 in 6.2 mi WSW 12.7 mph - N/A   Mostly Cloudy
7:50 PM 46.4 °F 39.5 °F 41.0 °F 81% 29.92 in 6.2 mi WSW 17.3 mph 31.1 mph N/A   Mostly Cloudy
8:20 PM 46.4 °F 41.5 °F 41.0 °F 81% 29.92 in 6.2 mi West 10.4 mph - N/A Rain Light Rain
8:50 PM 46.4 °F 41.1 °F 41.0 °F 81% 29.92 in 6.2 mi West 11.5 mph - N/A   Mostly Cloudy
9:20 PM 46.4 °F 40.7 °F 42.8 °F 87% 29.92 in 6.2 mi WSW 12.7 mph - N/A   Mostly Cloudy
9:50 PM 46.4 °F 40.7 °F 41.0 °F 81% 29.89 in 6.2 mi West 12.7 mph - N/A   Mostly Cloudy
10:20 PM 46.4 °F 40.7 °F 41.0 °F 81% 29.89 in 6.2 mi West 12.7 mph - N/A   Mostly Cloudy
10:50 PM 44.6 °F 38.8 °F 41.0 °F 87% 29.89 in 6.2 mi WSW 11.5 mph - N/A   Scattered Clouds
11:20 PM 44.6 °F 40.2 °F 41.0 °F 87% 29.89 in 6.2 mi WSW 8.1 mph - N/A   Partly Cloudy
11:50 PM 44.6 °F 40.7 °F 41.0 °F 87% 29.86 in - West 6.9 mph - N/A   Clear